Location: Dannhausen
(51.8650°N, 10.1026°E)
Time: 02:13:20
(UTC+00:00)

Cosmos 2233 Rocket - Pass Details

Date: 17 August 2020
Orbit: 952 x 992 km, 82.9° (Epoch: 26 September)

Event Time Altitude Azimuth Distance (km) Brightness Sun altitude
Exits shadow 21:37:36 38° 170° (S) 1,482 4.4 -21.2°
Maximum altitude 21:40:11 72° 96° (E) 1,042 4.0 -21.3°
Drops below altitude 10° 21:46:30 10° 13° (NNE) 2,762 7.1 -21.8°
Sets 21:49:02 0° 12° (NNE) 3,711 7.9 -21.9°
